COSMOS 535

Satellite information

Favourite Embed

Satellite Type and Status

PAYLOADIN ORBIT

Key statistics

Satellite COSMOS 535 at a glance.

Uptime

19358

Days in orbit

Revolutions

≈ 12.6

Per day

Orbit

LEO

Low Earth Orbit

Inclination

74.0

Latest

Satellite identification and parameters

Extended collection of information and parameters for COSMOS 535.

Object identification

Identified? True

Debris? False

Object name: COSMOS 535

International designator: 1972-087H

Object number (NORAD): 6270

Object ID (CCSDS): 6270

Country: COMMONWEALTH OF INDEPENDENT STATES (CIS)

Current information (Y/N): Y

RCS size: MEDIUM

Orbital parameters

Period: 114.345 minutes

Inclination: 74.0354 deg

SMA: 7803.772 km

Apoapsis: 1467.954 km

Periapsis: 1383.319 km

RAAN: 200.9867 deg

Eccentricy: 0.0054227

Argument of periapsis: 10.2635 deg

Mean anomaly: 58.8493 deg

Mean motion: 12.5934845 rev/day

Mean motion (dot): -0.00000021 rev/day2

B* drag term: -0.000024814 1/REarth

Two-line elements (TLE)

Creation date: Oct. 31, 2025, 10:56 p.m.

Reference frame: TEME

Reference center: EARTH

Epoch: Oct. 31, 2025, 7:50 p.m. UTC

TLE line 0: 0 COSMOS 535

TLE line 1: 1 6270U 72087H 25304.82688501 -.00000021 00000-0 -24814-4 0 9999

TLE line 2: 2 6270 74.0354 200.9867 0054227 10.2635 58.8493 12.59348450436280

Live tracking on map

Real-time ground track for satellite COSMOS 535.

In-orbit conjunctions

A list of the most updated potential collisions computed for object COSMOS 535.

Target Orbit TCA Probability of collision Miss distance Type
COSMOS 1795 LEO 2025-04-28 04:05:46 0.0003195953 142.0 (m) PAYLOAD

Associated space launch

Military communications satellites

COSMOS 535 was lifted into orbit during the mission ‘Kosmos-3M | Strela-1M 33-40’, on board a Kosmos-3M space rocket.

The launch took place on Nov. 1, 1972, 2:08 a.m. from 132/2.

For more information about the launch, click the button.

Launch to space Kosmos-3M | Strela-1M 33-40
Kosmos-3M | Strela-1M 33-40

Agency: N/A

Status: Launch Successful

Launch date: Nov. 1, 1972, 2:08 a.m. UTC

Rocket: Kosmos-3M

Launch pad: 132/2

Location: Plesetsk Cosmodrome, Russian Federation

...

Latest news about this satellite

There are no fresh news available about this satellite. Check back as we update our databases every day.


Newsletter sign-up

Weekly statistics, charts and insights to help you stay on top of the space industry.